| time (UTC) | temp F | wind direction | speed MPH | gust MPH | rain 1hr in | rain 24hr in | rain mn in | humidity % | barometer mb |
| 20260510160600 | 58 | 175 | 2.0 | 3.0 | 0.00 | 0.00 | 0.00 | 41 | 1020.7 |
| 20260510160100 | 57 | 330 | 2.0 | 3.0 | 0.00 | 0.00 | 0.00 | 43 | 1020.5 |
| 20260510155557 | 56 | 47 | 5.0 | 7.0 | 0.00 | 0.00 | 0.00 | 43 | 1020.6 |
| 20260510155054 | 55 | 349 | 6.0 | 7.0 | 0.00 | 0.00 | 0.00 | 45 | 1020.5 |
| 20260510154549 | 55 | 4 | 5.0 | 7.0 | 0.00 | 0.00 | 0.00 | 44 | 1020.7 |
| 20260510154045 | 55 | 354 | 6.0 | 9.0 | 0.00 | 0.00 | 0.00 | 45 | 1020.5 |
| 20260510153539 | 55 | 351 | 4.0 | 5.0 | 0.00 | 0.00 | 0.00 | 44 | 1020.4 |
| 20260510153037 | 54 | 144 | 2.0 | 2.0 | 0.00 | 0.00 | 0.00 | 45 | 1020.5 |
| 20260510152534 | 53 | 341 | 1.0 | 2.0 | 0.00 | 0.00 | 0.00 | 46 | 1020.6 |
| 20260510152030 | 53 | 60 | 2.0 | 3.0 | 0.00 | 0.00 | 0.00 | 46 | 1020.5 |
| 20260510151526 | 53 | 240 | 2.0 | 3.0 | 0.00 | 0.00 | 0.00 | 45 | 1020.4 |
| 20260510151024 | 53 | 37 | 6.0 | 7.0 | 0.00 | 0.00 | 0.00 | 46 | 1020.5 |
| 20260510150519 | 54 | 104 | 3.0 | 3.0 | 0.00 | 0.00 | 0.00 | 46 | 1020.4 |
| 20260510150015 | 53 | 206 | 2.0 | 3.0 | 0.00 | 0.00 | 0.00 | 46 | 1020.3 |
| 20260510145512 | 53 | 60 | 2.0 | 2.0 | 0.00 | 0.00 | 0.00 | 45 | 1020.6 |
| 20260510145008 | 53 | 169 | 2.0 | 2.0 | 0.00 | 0.00 | 0.00 | 47 | 1020.3 |
| 20260510144505 | 52 | 91 | 2.0 | 3.0 | 0.00 | 0.00 | 0.00 | 48 | 1020.4 |
| 20260510144001 | 52 | 138 | 4.0 | 5.0 | 0.00 | 0.00 | 0.00 | 49 | 1020.5 |
| 20260510143457 | 52 | 195 | 3.0 | 5.0 | 0.00 | 0.00 | 0.00 | 48 | 1020.4 |
| 20260510142953 | 51 | 332 | 3.0 | 5.0 | 0.00 | 0.00 | 0.00 | 49 | 1020.3 |
| 20260510142450 | 51 | 3 | 3.0 | 3.0 | 0.00 | 0.00 | 0.00 | 49 | 1020.2 |
| 20260510141947 | 51 | 194 | 2.0 | 5.0 | 0.00 | 0.00 | 0.00 | 48 | 1020.2 |
| 20260510141443 | 52 | 148 | 1.0 | 2.0 | 0.00 | 0.00 | 0.00 | 49 | 1020.2 |
| 20260510140941 | 51 | 0 | 4.0 | 5.0 | 0.00 | 0.00 | 0.00 | 49 | 1020.2 |
| 20260510140432 | 51 | 140 | 2.0 | 3.0 | 0.00 | 0.00 | 0.00 | 51 | 1020.2 |
| 20260510135931 | 51 | 28 | 2.0 | 3.0 | 0.00 | 0.00 | 0.00 | 50 | 1020.2 |
| 20260510135427 | 51 | 181 | 3.0 | 5.0 | 0.00 | 0.00 | 0.00 | 51 | 1020.0 |
| 20260510134924 | 50 | 113 | 1.0 | 2.0 | 0.00 | 0.00 | 0.00 | 52 | 1020.3 |
| 20260510134421 | 50 | 339 | 3.0 | 3.0 | 0.00 | 0.00 | 0.00 | 53 | 1020.1 |
| 20260510133917 | 49 | 167 | 1.0 | 2.0 | 0.00 | 0.00 | 0.00 | 53 | 1019.9 |
| 20260510133413 | 49 | 154 | 0.0 | 0.0 | 0.00 | 0.00 | 0.00 | 55 | 1020.0 |
| 20260510132908 | 48 | 155 | 0.0 | 0.0 | 0.00 | 0.00 | 0.00 | 56 | 1020.1 |
| 20260510132407 | 48 | 68 | 1.0 | 2.0 | 0.00 | 0.00 | 0.00 | 55 | 1019.9 |
| 20260510131903 | 48 | 135 | 2.0 | 2.0 | 0.00 | 0.00 | 0.00 | 55 | 1019.7 |
| 20260510131401 | 48 | 142 | 0.0 | 2.0 | 0.00 | 0.00 | 0.00 | 55 | 1020.0 |
| 20260510130858 | 48 | 65 | 2.0 | 3.0 | 0.00 | 0.00 | 0.00 | 55 | 1019.9 |
| 20260510130355 | 48 | 10 | 3.0 | 3.0 | 0.00 | 0.00 | 0.00 | 56 | 1019.8 |
| 20260510125851 | 48 | 10 | 2.0 | 2.0 | 0.00 | 0.00 | 0.00 | 56 | 1019.7 |
| 20260510125347 | 48 | 187 | 2.0 | 3.0 | 0.00 | 0.00 | 0.00 | 56 | 1019.6 |
| 20260510124844 | 48 | 134 | 1.0 | 2.0 | 0.00 | 0.00 | 0.00 | 57 | 1019.5 |
| 20260510124341 | 48 | 156 | 0.0 | 0.0 | 0.00 | 0.00 | 0.00 | 56 | 1019.6 |
| 20260510123836 | 47 | 164 | 0.0 | 0.0 | 0.00 | 0.00 | 0.00 | 57 | 1019.6 |
| 20260510123332 | 47 | 162 | 0.0 | 0.0 | 0.00 | 0.00 | 0.00 | 57 | 1019.6 |
| 20260510122829 | 47 | 138 | 0.0 | 0.0 | 0.00 | 0.00 | 0.00 | 58 | 1019.5 |
| 20260510122324 | 46 | 196 | 0.0 | 0.0 | 0.00 | 0.00 | 0.00 | 58 | 1019.5 |
| 20260510121821 | 46 | 164 | 0.0 | 0.0 | 0.00 | 0.00 | 0.00 | 58 | 1019.5 |
| 20260510121319 | 46 | 123 | 2.0 | 3.0 | 0.00 | 0.00 | 0.00 | 58 | 1019.4 |
| 20260510120816 | 46 | 19 | 2.0 | 3.0 | 0.00 | 0.00 | 0.00 | 59 | 1019.2 |
| 20260510120313 | 45 | 123 | 2.0 | 2.0 | 0.00 | 0.00 | 0.00 | 58 | 1019.2 |
| 20260510115808 | 45 | 153 | 0.0 | 0.0 | 0.00 | 0.00 | 0.00 | 60 | 1019.1 |
| 20260510115307 | 44 | 115 | 0.0 | 2.0 | 0.00 | 0.00 | 0.00 | 62 | 1019.1 |
| 20260510114802 | 43 | 355 | 2.0 | 5.0 | 0.00 | 0.00 | 0.00 | 65 | 1018.9 |
| 20260510114259 | 42 | 170 | 0.0 | 0.0 | 0.00 | 0.00 | 0.00 | 69 | 1019.1 |
| 20260510113753 | 41 | 172 | 0.0 | 0.0 | 0.00 | 0.00 | 0.00 | 73 | 1019.0 |
| 20260510113251 | 41 | 159 | 0.0 | 0.0 | 0.00 | 0.00 | 0.00 | 76 | 1018.9 |
| 20260510112747 | 40 | 160 | 0.0 | 0.0 | 0.00 | 0.00 | 0.00 | 77 | 1018.8 |
| 20260510112244 | 40 | 160 | 0.0 | 0.0 | 0.00 | 0.00 | 0.00 | 77 | 1018.7 |
| 20260510111740 | 40 | 160 | 0.0 | 0.0 | 0.00 | 0.00 | 0.00 | 77 | 1018.5 |
| 20260510111237 | 39 | 170 | 0.0 | 0.0 | 0.00 | 0.00 | 0.00 | 78 | 1018.5 |
| 20260510110736 | 39 | 176 | 0.0 | 0.0 | 0.00 | 0.00 | 0.00 | 78 | 1018.5 |
| 20260510110235 | 39 | 176 | 0.0 | 0.0 | 0.00 | 0.00 | 0.00 | 78 | 1018.4 |
| 20260510105734 | 39 | 176 | 0.0 | 0.0 | 0.00 | 0.00 | 0.00 | 78 | 1018.3 |
| 20260510105229 | 39 | 176 | 0.0 | 0.0 | 0.00 | 0.00 | 0.00 | 78 | 1018.1 |
| 20260510104726 | 39 | 176 | 0.0 | 0.0 | 0.00 | 0.00 | 0.00 | 78 | 1018.2 |
| 20260510104224 | 39 | 176 | 0.0 | 0.0 | 0.00 | 0.00 | 0.00 | 78 | 1018.2 |
| 20260510103720 | 39 | 169 | 0.0 | 0.0 | 0.00 | 0.00 | 0.00 | 79 | 1017.9 |
| 20260510103217 | 38 | 167 | 0.0 | 0.0 | 0.00 | 0.00 | 0.00 | 80 | 1017.9 |
| 20260510102716 | 37 | 167 | 0.0 | 0.0 | 0.00 | 0.00 | 0.00 | 82 | 1017.9 |
| 20260510102212 | 37 | 167 | 0.0 | 0.0 | 0.00 | 0.00 | 0.00 | 82 | 1017.8 |
| 20260510101710 | 36 | 167 | 0.0 | 0.0 | 0.00 | 0.00 | 0.00 | 82 | 1017.7 |
| 20260510101209 | 36 | 167 | 0.0 | 0.0 | 0.00 | 0.00 | 0.00 | 81 | 1017.9 |
| 20260510100704 | 36 | 167 | 0.0 | 0.0 | 0.00 | 0.00 | 0.00 | 80 | 1017.7 |
| 20260510100202 | 36 | 167 | 0.0 | 0.0 | 0.00 | 0.00 | 0.00 | 80 | 1017.7 |
| 20260510095657 | 36 | 167 | 0.0 | 0.0 | 0.00 | 0.00 | 0.00 | 79 | 1017.8 |
| 20260510095152 | 37 | 167 | 0.0 | 0.0 | 0.00 | 0.00 | 0.00 | 79 | 1017.7 |
| 20260510094651 | 37 | 167 | 0.0 | 0.0 | 0.00 | 0.00 | 0.00 | 79 | 1017.4 |
| 20260510094147 | 37 | 167 | 0.0 | 0.0 | 0.00 | 0.00 | 0.00 | 79 | 1017.3 |
| 20260510093643 | 37 | 167 | 0.0 | 0.0 | 0.00 | 0.00 | 0.00 | 79 | 1017.2 |
| 20260510093141 | 37 | 167 | 0.0 | 0.0 | 0.00 | 0.00 | 0.00 | 78 | 1017.2 |
| 20260510092637 | 37 | 167 | 0.0 | 0.0 | 0.00 | 0.00 | 0.00 | 78 | 1017.2 |
| 20260510092132 | 37 | 167 | 0.0 | 0.0 | 0.00 | 0.00 | 0.00 | 78 | 1017.1 |
| 20260510091629 | 37 | 167 | 0.0 | 0.0 | 0.00 | 0.00 | 0.00 | 78 | 1017.2 |
| 20260510091125 | 37 | 167 | 0.0 | 0.0 | 0.00 | 0.00 | 0.00 | 77 | 1017.2 |
| 20260510090622 | 37 | 167 | 0.0 | 0.0 | 0.00 | 0.00 | 0.00 | 76 | 1017.3 |
| 20260510090118 | 37 | 167 | 0.0 | 0.0 | 0.00 | 0.00 | 0.00 | 76 | 1017.1 |
| 20260510085613 | 38 | 167 | 0.0 | 0.0 | 0.00 | 0.00 | 0.00 | 75 | 1016.8 |
| 20260510085109 | 38 | 167 | 0.0 | 0.0 | 0.00 | 0.00 | 0.00 | 75 | 1017.1 |
| 20260510084606 | 38 | 167 | 0.0 | 0.0 | 0.00 | 0.00 | 0.00 | 74 | 1016.6 |
| 20260510084102 | 38 | 167 | 0.0 | 0.0 | 0.00 | 0.00 | 0.00 | 74 | 1016.7 |
| 20260510083559 | 38 | 167 | 0.0 | 0.0 | 0.00 | 0.00 | 0.00 | 73 | 1016.6 |
| 20260510083055 | 38 | 167 | 0.0 | 0.0 | 0.00 | 0.00 | 0.00 | 73 | 1016.5 |
| 20260510082552 | 39 | 167 | 0.0 | 0.0 | 0.00 | 0.00 | 0.00 | 72 | 1016.5 |
| 20260510082048 | 39 | 167 | 0.0 | 0.0 | 0.00 | 0.00 | 0.00 | 72 | 1016.1 |
| 20260510081543 | 39 | 167 | 0.0 | 0.0 | 0.00 | 0.00 | 0.00 | 72 | 1016.4 |
| 20260510081039 | 39 | 167 | 0.0 | 0.0 | 0.00 | 0.00 | 0.00 | 72 | 1016.3 |
| 20260510080538 | 39 | 167 | 0.0 | 0.0 | 0.00 | 0.00 | 0.00 | 71 | 1016.4 |
| 20260510080035 | 39 | 167 | 0.0 | 0.0 | 0.00 | 0.00 | 0.00 | 69 | 1016.2 |
| 20260510075532 | 39 | 167 | 0.0 | 0.0 | 0.00 | 0.00 | 0.00 | 69 | 1016.1 |
| 20260510075029 | 40 | 167 | 0.0 | 0.0 | 0.00 | 0.00 | 0.00 | 68 | 1016.2 |
| 20260510074527 | 40 | 167 | 0.0 | 0.0 | 0.00 | 0.00 | 0.00 | 68 | 1016.1 |
| 20260510074022 | 40 | 167 | 0.0 | 0.0 | 0.00 | 0.00 | 0.00 | 67 | 1016.1 |
| 20260510073518 | 40 | 167 | 0.0 | 0.0 | 0.00 | 0.00 | 0.00 | 67 | 1016.3 |
| 20260510073015 | 40 | 167 | 0.0 | 0.0 | 0.00 | 0.00 | 0.00 | 67 | 1016.2 |
| 20260510072512 | 40 | 167 | 0.0 | 0.0 | 0.00 | 0.00 | 0.00 | 66 | 1016.2 |
| 20260510072007 | 41 | 167 | 0.0 | 0.0 | 0.00 | 0.00 | 0.00 | 65 | 1016.0 |
| 20260510071504 | 40 | 167 | 0.0 | 0.0 | 0.00 | 0.00 | 0.00 | 65 | 1016.3 |
| 20260510071002 | 40 | 167 | 0.0 | 0.0 | 0.00 | 0.00 | 0.00 | 65 | 1016.3 |
| 20260510070459 | 40 | 167 | 0.0 | 0.0 | 0.00 | 0.00 | 0.00 | 66 | 1016.2 |
| 20260510065954 | 40 | 167 | 0.0 | 0.0 | 0.00 | 0.00 | 0.00 | 65 | 1016.2 |
| 20260510065452 | 40 | 167 | 0.0 | 0.0 | 0.00 | 0.00 | 0.00 | 64 | 1016.2 |
| 20260510064948 | 41 | 167 | 0.0 | 0.0 | 0.00 | 0.00 | 0.00 | 63 | 1016.2 |
| 20260510064445 | 42 | 167 | 0.0 | 0.0 | 0.00 | 0.00 | 0.00 | 62 | 1016.2 |
| 20260510063942 | 42 | 167 | 0.0 | 0.0 | 0.00 | 0.00 | 0.00 | 61 | 1016.3 |
| 20260510063438 | 43 | 167 | 0.0 | 0.0 | 0.00 | 0.00 | 0.00 | 60 | 1016.1 |
| 20260510062936 | 43 | 167 | 0.0 | 0.0 | 0.00 | 0.00 | 0.00 | 60 | 1016.1 |
| 20260510062430 | 43 | 167 | 0.0 | 0.0 | 0.00 | 0.00 | 0.00 | 59 | 1016.3 |
| 20260510061926 | 43 | 170 | 0.0 | 0.0 | 0.00 | 0.00 | 0.00 | 57 | 1016.1 |
| 20260510061423 | 43 | 170 | 0.0 | 0.0 | 0.00 | 0.00 | 0.00 | 57 | 1016.1 |
| 20260510060919 | 43 | 170 | 0.0 | 0.0 | 0.00 | 0.00 | 0.00 | 58 | 1016.1 |
| 20260510060416 | 43 | 170 | 0.0 | 0.0 | 0.00 | 0.00 | 0.00 | 58 | 1016.1 |
| 20260510055913 | 43 | 170 | 0.0 | 0.0 | 0.00 | 0.00 | 0.00 | 58 | 1016.1 |
| 20260510055408 | 43 | 170 | 0.0 | 0.0 | 0.00 | 0.00 | 0.00 | 58 | 1015.8 |
| 20260510054906 | 42 | 170 | 0.0 | 0.0 | 0.00 | 0.00 | 0.00 | 59 | 1016.0 |
| 20260510054401 | 43 | 170 | 0.0 | 0.0 | 0.00 | 0.00 | 0.00 | 57 | 1016.1 |
| 20260510053857 | 44 | 170 | 0.0 | 0.0 | 0.00 | 0.00 | 0.00 | 56 | 1016.1 |
| 20260510053352 | 44 | 170 | 0.0 | 0.0 | 0.00 | 0.00 | 0.00 | 56 | 1015.9 |
| 20260510052849 | 44 | 170 | 0.0 | 0.0 | 0.00 | 0.00 | 0.00 | 55 | 1015.9 |
| 20260510052345 | 44 | 170 | 0.0 | 0.0 | 0.00 | 0.00 | 0.00 | 54 | 1015.7 |
| 20260510051841 | 44 | 170 | 0.0 | 0.0 | 0.00 | 0.00 | 0.00 | 54 | 1016.0 |
| 20260510051338 | 45 | 170 | 0.0 | 0.0 | 0.00 | 0.00 | 0.00 | 53 | 1015.8 |
| 20260510050835 | 46 | 170 | 0.0 | 0.0 | 0.00 | 0.00 | 0.00 | 51 | 1015.7 |
| 20260510050331 | 46 | 170 | 0.0 | 0.0 | 0.00 | 0.00 | 0.00 | 49 | 1015.6 |
| 20260510045829 | 47 | 170 | 0.0 | 0.0 | 0.00 | 0.00 | 0.00 | 49 | 1015.7 |
| 20260510045325 | 47 | 170 | 0.0 | 0.0 | 0.00 | 0.00 | 0.00 | 48 | 1015.8 |
| 20260510044822 | 47 | 170 | 0.0 | 0.0 | 0.00 | 0.00 | 0.00 | 48 | 1015.6 |
| 20260510044319 | 48 | 170 | 0.0 | 0.0 | 0.00 | 0.00 | 0.00 | 47 | 1015.8 |
| 20260510043816 | 48 | 170 | 0.0 | 0.0 | 0.00 | 0.00 | 0.00 | 46 | 1015.8 |
| 20260510043312 | 48 | 169 | 0.0 | 0.0 | 0.00 | 0.00 | 0.00 | 45 | 1015.8 |
| 20260510042810 | 49 | 169 | 0.0 | 0.0 | 0.00 | 0.00 | 0.00 | 45 | 1015.8 |
| 20260510042307 | 49 | 165 | 0.0 | 0.0 | 0.00 | 0.00 | 0.00 | 44 | 1015.5 |
| 20260510041801 | 50 | 168 | 0.0 | 0.0 | 0.00 | 0.00 | 0.00 | 43 | 1015.7 |
| 20260510041259 | 50 | 170 | 0.0 | 0.0 | 0.00 | 0.00 | 0.00 | 42 | 1015.7 |
| 20260510040757 | 50 | 173 | 0.0 | 2.0 | 0.00 | 0.00 | 0.00 | 42 | 1015.5 |
| 20260510040253 | 50 | 183 | 1.0 | 2.0 | 0.00 | 0.00 | 0.00 | 42 | 1015.5 |
| 20260510035749 | 50 | 156 | 0.0 | 2.0 | 0.00 | 0.00 | 0.00 | 42 | 1015.4 |
| 20260510035244 | 51 | 168 | 0.0 | 0.0 | 0.00 | 0.00 | 0.00 | 42 | 1015.3 |
| 20260510034740 | 51 | 194 | 0.0 | 0.0 | 0.00 | 0.00 | 0.00 | 41 | 1015.2 |
| 20260510034238 | 51 | 208 | 0.0 | 2.0 | 0.00 | 0.00 | 0.00 | 41 | 1015.1 |
| 20260510033734 | 51 | 307 | 2.0 | 3.0 | 0.00 | 0.00 | 0.00 | 40 | 1015.2 |
| 20260510033232 | 51 | 146 | 0.0 | 0.0 | 0.00 | 0.00 | 0.00 | 40 | 1015.0 |
| 20260510032728 | 51 | 274 | 1.0 | 2.0 | 0.00 | 0.00 | 0.00 | 40 | 1014.8 |
| 20260510032224 | 51 | 183 | 1.0 | 2.0 | 0.00 | 0.00 | 0.00 | 40 | 1015.0 |
| 20260510031719 | 52 | 168 | 0.0 | 0.0 | 0.00 | 0.00 | 0.00 | 40 | 1015.0 |
| 20260510031216 | 52 | 167 | 0.0 | 0.0 | 0.00 | 0.00 | 0.00 | 40 | 1014.8 |
| 20260510030715 | 52 | 168 | 0.0 | 0.0 | 0.00 | 0.00 | 0.00 | 39 | 1014.6 |
| 20260510030213 | 53 | 222 | 0.0 | 0.0 | 0.00 | 0.00 | 0.00 | 39 | 1014.5 |
| 20260510025710 | 53 | 174 | 0.0 | 0.0 | 0.00 | 0.00 | 0.00 | 39 | 1014.4 |
| 20260510025207 | 52 | 159 | 0.0 | 0.0 | 0.00 | 0.00 | 0.00 | 39 | 1014.4 |
| 20260510024704 | 53 | 92 | 1.0 | 2.0 | 0.00 | 0.00 | 0.00 | 39 | 1014.4 |
| 20260510024200 | 53 | 247 | 2.0 | 3.0 | 0.00 | 0.00 | 0.00 | 38 | 1014.3 |
| 20260510023656 | 53 | 248 | 2.0 | 2.0 | 0.00 | 0.00 | 0.00 | 37 | 1014.2 |
| 20260510023154 | 53 | 206 | 0.0 | 0.0 | 0.00 | 0.00 | 0.00 | 37 | 1014.1 |
| 20260510022649 | 54 | 179 | 0.0 | 2.0 | 0.00 | 0.00 | 0.00 | 37 | 1014.0 |
| 20260510022144 | 54 | 168 | 1.0 | 2.0 | 0.00 | 0.00 | 0.00 | 37 | 1013.9 |
| 20260510021640 | 54 | 355 | 4.0 | 5.0 | 0.00 | 0.00 | 0.00 | 36 | 1013.7 |
| 20260510021138 | 54 | 205 | 2.0 | 2.0 | 0.00 | 0.00 | 0.00 | 36 | 1013.8 |
| 20260510020637 | 54 | 168 | 2.0 | 3.0 | 0.00 | 0.00 | 0.00 | 36 | 1013.4 |
| 20260510020133 | 55 | 179 | 0.0 | 2.0 | 0.00 | 0.00 | 0.00 | 35 | 1013.3 |
| 20260510015629 | 55 | 141 | 1.0 | 2.0 | 0.00 | 0.00 | 0.00 | 35 | 1013.3 |
| 20260510015126 | 55 | 11 | 2.0 | 3.0 | 0.00 | 0.00 | 0.00 | 35 | 1013.1 |
| 20260510014621 | 55 | 46 | 4.0 | 5.0 | 0.00 | 0.00 | 0.00 | 34 | 1013.1 |
| 20260510014119 | 56 | 265 | 3.0 | 3.0 | 0.00 | 0.00 | 0.00 | 34 | 1012.9 |
| 20260510013619 | 56 | 173 | 0.0 | 2.0 | 0.00 | 0.00 | 0.00 | 34 | 1013.1 |
| 20260510013115 | 56 | 286 | 4.0 | 7.0 | 0.00 | 0.00 | 0.00 | 33 | 1012.9 |
| 20260510012613 | 56 | 313 | 7.0 | 9.0 | 0.00 | 0.00 | 0.00 | 33 | 1012.6 |
| 20260510012111 | 57 | 132 | 3.0 | 5.0 | 0.00 | 0.00 | 0.00 | 34 | 1012.5 |
| 20260510011610 | 57 | 170 | 2.0 | 2.0 | 0.00 | 0.00 | 0.00 | 33 | 1012.5 |
| 20260510011106 | 57 | 321 | 1.0 | 2.0 | 0.00 | 0.00 | 0.00 | 34 | 1012.2 |
| 20260510010603 | 57 | 1 | 6.0 | 9.0 | 0.00 | 0.00 | 0.00 | 33 | 1012.2 |
| 20260510010100 | 57 | 306 | 2.0 | 3.0 | 0.00 | 0.00 | 0.00 | 32 | 1012.2 |
| 20260510005555 | 57 | 259 | 2.0 | 2.0 | 0.00 | 0.00 | 0.00 | 33 | 1012.3 |
| 20260510005053 | 58 | 207 | 1.0 | 2.0 | 0.00 | 0.00 | 0.00 | 32 | 1012.0 |
| 20260510004551 | 58 | 337 | 2.0 | 3.0 | 0.00 | 0.00 | 0.00 | 33 | 1012.1 |
| 20260510004049 | 59 | 264 | 3.0 | 5.0 | 0.00 | 0.00 | 0.00 | 32 | 1012.0 |
| 20260510003545 | 59 | 198 | 2.0 | 3.0 | 0.00 | 0.00 | 0.00 | 32 | 1011.9 |
| 20260510003041 | 59 | 197 | 2.0 | 3.0 | 0.00 | 0.00 | 0.00 | 32 | 1011.8 |
| 20260510002536 | 60 | 296 | 5.0 | 7.0 | 0.00 | 0.00 | 0.00 | 31 | 1011.8 |
| 20260510002034 | 59 | 64 | 1.0 | 2.0 | 0.00 | 0.00 | 0.00 | 32 | 1011.8 |
| 20260510001531 | 59 | 281 | 1.0 | 2.0 | 0.00 | 0.00 | 0.00 | 32 | 1011.9 |
| 20260510001029 | 59 | 29 | 4.0 | 5.0 | 0.00 | 0.00 | 0.00 | 32 | 1011.8 |
| 20260510000524 | 59 | 168 | 0.0 | 2.0 | 0.00 | 0.00 | 0.00 | 32 | 1011.4 |
| 20260510000021 | 59 | 141 | 2.0 | 3.0 | 0.00 | 0.00 | 0.00 | 32 | 1011.5 |
| 20260509235518 | 59 | 295 | 5.0 | 7.0 | 0.00 | 0.00 | 0.00 | 32 | 1011.5 |
| 20260509235015 | 59 | 102 | 1.0 | 2.0 | 0.00 | 0.00 | 0.00 | 32 | 1011.7 |
| 20260509234511 | 59 | 193 | 2.0 | 5.0 | 0.00 | 0.00 | 0.00 | 31 | 1011.5 |
| 20260509234009 | 59 | 176 | 2.0 | 3.0 | 0.00 | 0.00 | 0.00 | 31 | 1011.5 |
| 20260509233506 | 59 | 313 | 2.0 | 5.0 | 0.00 | 0.00 | 0.00 | 30 | 1011.1 |
| 20260509233003 | 59 | 19 | 5.0 | 7.0 | 0.00 | 0.00 | 0.00 | 30 | 1011.3 |
| 20260509232500 | 59 | 359 | 6.0 | 12.0 | 0.00 | 0.00 | 0.00 | 30 | 1011.3 |
| 20260509231956 | 60 | 101 | 3.0 | 3.0 | 0.00 | 0.00 | 0.00 | 29 | 1011.2 |
| 20260509231453 | 61 | 248 | 5.0 | 9.0 | 0.00 | 0.00 | 0.00 | 29 | 1011.2 |
| 20260509230951 | 61 | 195 | 5.0 | 10.0 | 0.00 | 0.00 | 0.00 | 30 | 1011.1 |
| 20260509230447 | 61 | 300 | 2.0 | 3.0 | 0.00 | 0.00 | 0.00 | 30 | 1011.1 |
| 20260509225943 | 61 | 290 | 5.0 | 7.0 | 0.00 | 0.00 | 0.00 | 30 | 1011.1 |
| 20260509225440 | 61 | 105 | 6.0 | 10.0 | 0.00 | 0.00 | 0.00 | 29 | 1011.0 |
| 20260509224936 | 61 | 2 | 5.0 | 9.0 | 0.00 | 0.00 | 0.00 | 29 | 1011.0 |
| 20260509224431 | 61 | 348 | 2.0 | 3.0 | 0.00 | 0.00 | 0.00 | 30 | 1010.8 |
| 20260509223929 | 62 | 33 | 6.0 | 7.0 | 0.00 | 0.00 | 0.00 | 28 | 1010.7 |
| 20260509223425 | 62 | 339 | 2.0 | 3.0 | 0.00 | 0.00 | 0.00 | 30 | 1010.6 |
| 20260509222923 | 62 | 5 | 5.0 | 7.0 | 0.00 | 0.00 | 0.00 | 30 | 1010.7 |
| 20260509222418 | 62 | 292 | 4.0 | 7.0 | 0.00 | 0.00 | 0.00 | 30 | 1010.7 |
| 20260509221914 | 62 | 12 | 6.0 | 7.0 | 0.00 | 0.00 | 0.00 | 29 | 1010.7 |
| 20260509221411 | 62 | 235 | 4.0 | 7.0 | 0.00 | 0.00 | 0.00 | 29 | 1010.5 |
| 20260509220907 | 63 | 280 | 5.0 | 7.0 | 0.00 | 0.00 | 0.00 | 29 | 1010.7 |
| 20260509220402 | 64 | 197 | 1.0 | 2.0 | 0.00 | 0.00 | 0.00 | 30 | 1010.6 |
| 20260509215858 | 64 | 353 | 3.0 | 3.0 | 0.00 | 0.00 | 0.00 | 28 | 1010.5 |
| 20260509215355 | 63 | 300 | 5.0 | 7.0 | 0.00 | 0.00 | 0.00 | 31 | 1010.3 |
| 20260509214852 | 62 | 218 | 2.0 | 3.0 | 0.00 | 0.00 | 0.00 | 31 | 1010.4 |
| 20260509214349 | 63 | 183 | 2.0 | 2.0 | 0.00 | 0.00 | 0.00 | 30 | 1010.4 |
| 20260509213846 | 63 | 292 | 5.0 | 7.0 | 0.00 | 0.00 | 0.00 | 29 | 1010.4 |
| 20260509213341 | 63 | 0 | 4.0 | 7.0 | 0.00 | 0.00 | 0.00 | 31 | 1010.3 |
| 20260509212839 | 63 | 340 | 7.0 | 10.0 | 0.00 | 0.00 | 0.00 | 29 | 1010.2 |
| 20260509212337 | 62 | 108 | 6.0 | 7.0 | 0.00 | 0.00 | 0.00 | 29 | 1010.2 |
| 20260509211832 | 63 | 316 | 6.0 | 9.0 | 0.00 | 0.00 | 0.00 | 29 | 1010.3 |
| 20260509211328 | 62 | 202 | 1.0 | 2.0 | 0.00 | 0.00 | 0.00 | 32 | 1010.3 |
| 20260509210825 | 62 | 46 | 6.0 | 7.0 | 0.00 | 0.00 | 0.00 | 29 | 1010.3 |
| 20260509210323 | 62 | 15 | 9.0 | 14.0 | 0.00 | 0.00 | 0.00 | 29 | 1010.1 |
| 20260509205823 | 62 | 249 | 7.0 | 15.0 | 0.00 | 0.00 | 0.00 | 28 | 1010.3 |
| 20260509205323 | 62 | 330 | 3.0 | 5.0 | 0.00 | 0.00 | 0.00 | 30 | 1010.0 |
| 20260509204820 | 63 | 320 | 9.0 | 12.0 | 0.00 | 0.00 | 0.00 | 28 | 1010.3 |
| 20260509204316 | 62 | 303 | 3.0 | 7.0 | 0.00 | 0.00 | 0.00 | 32 | 1010.0 |
| 20260509203812 | 63 | 273 | 6.0 | 9.0 | 0.00 | 0.00 | 0.00 | 30 | 1009.9 |
| 20260509203310 | 62 | 57 | 3.0 | 3.0 | 0.00 | 0.00 | 0.00 | 30 | 1010.1 |
| 20260509202806 | 62 | 2 | 6.0 | 7.0 | 0.00 | 0.00 | 0.00 | 30 | 1010.0 |
| 20260509202306 | 62 | 1 | 5.0 | 5.0 | 0.00 | 0.00 | 0.00 | 30 | 1010.2 |
| 20260509201800 | 63 | 123 | 2.0 | 5.0 | 0.00 | 0.00 | 0.00 | 30 | 1010.0 |
| 20260509201258 | 62 | 218 | 5.0 | 7.0 | 0.00 | 0.00 | 0.00 | 31 | 1010.1 |
| 20260509200754 | 63 | 357 | 2.0 | 3.0 | 0.00 | 0.00 | 0.00 | 30 | 1009.8 |
| 20260509200249 | 63 | 202 | 4.0 | 7.0 | 0.00 | 0.00 | 0.00 | 31 | 1009.6 |
| 20260509195747 | 62 | 357 | 8.0 | 10.0 | 0.00 | 0.00 | 0.00 | 32 | 1010.0 |
| 20260509195242 | 62 | 21 | 5.0 | 7.0 | 0.00 | 0.00 | 0.00 | 31 | 1009.8 |
| 20260509194741 | 62 | 322 | 2.0 | 5.0 | 0.00 | 0.00 | 0.00 | 32 | 1009.8 |
| 20260509194238 | 62 | 0 | 6.0 | 10.0 | 0.00 | 0.00 | 0.00 | 30 | 1009.8 |
| 20260509193735 | 62 | 46 | 5.0 | 7.0 | 0.00 | 0.00 | 0.00 | 33 | 1009.6 |
| 20260509193235 | 62 | 238 | 2.0 | 2.0 | 0.00 | 0.00 | 0.00 | 34 | 1009.9 |
| 20260509192731 | 62 | 33 | 4.0 | 5.0 | 0.00 | 0.00 | 0.00 | 32 | 1009.7 |
| 20260509192226 | 62 | 56 | 6.0 | 10.0 | 0.00 | 0.00 | 0.00 | 34 | 1009.8 |
| 20260509191722 | 61 | 285 | 7.0 | 9.0 | 0.00 | 0.00 | 0.00 | 33 | 1009.6 |
| 20260509191219 | 60 | 69 | 4.0 | 5.0 | 0.00 | 0.00 | 0.00 | 34 | 1009.4 |
| 20260509190715 | 61 | 9 | 7.0 | 9.0 | 0.00 | 0.00 | 0.00 | 35 | 1009.6 |
| 20260509190212 | 61 | 359 | 5.0 | 9.0 | 0.00 | 0.00 | 0.00 | 34 | 1009.5 |
| 20260509185710 | 61 | 319 | 2.0 | 2.0 | 0.00 | 0.00 | 0.00 | 34 | 1009.5 |
| 20260509185205 | 61 | 281 | 2.0 | 3.0 | 0.00 | 0.00 | 0.00 | 33 | 1009.3 |
| 20260509184703 | 61 | 290 | 5.0 | 5.0 | 0.00 | 0.00 | 0.00 | 33 | 1009.3 |
| 20260509184200 | 61 | 285 | 8.0 | 12.0 | 0.00 | 0.00 | 0.00 | 34 | 1009.3 |
| 20260509183656 | 60 | 12 | 6.0 | 12.0 | 0.00 | 0.00 | 0.00 | 36 | 1009.0 |
| 20260509183151 | 60 | 287 | 3.0 | 5.0 | 0.00 | 0.00 | 0.00 | 35 | 1009.4 |
| 20260509182647 | 61 | 192 | 4.0 | 5.0 | 0.00 | 0.00 | 0.00 | 35 | 1008.9 |
| 20260509182145 | 61 | 72 | 4.0 | 7.0 | 0.00 | 0.00 | 0.00 | 36 | 1008.8 |
| 20260509181643 | 60 | 264 | 9.0 | 15.0 | 0.00 | 0.00 | 0.00 | 34 | 1009.0 |
| 20260509181140 | 60 | 85 | 4.0 | 5.0 | 0.00 | 0.00 | 0.00 | 36 | 1009.3 |
| 20260509180637 | 60 | 37 | 3.0 | 5.0 | 0.00 | 0.00 | 0.00 | 34 | 1008.9 |
| 20260509180133 | 59 | 149 | 5.0 | 9.0 | 0.00 | 0.00 | 0.00 | 36 | 1009.0 |
| 20260509175629 | 59 | 274 | 3.0 | 3.0 | 0.00 | 0.00 | 0.00 | 35 | 1009.2 |
| 20260509175126 | 60 | 344 | 5.0 | 5.0 | 0.00 | 0.00 | 0.00 | 37 | 1009.0 |
| 20260509174622 | 60 | 330 | 7.0 | 9.0 | 0.00 | 0.00 | 0.00 | 35 | 1008.9 |
| 20260509174117 | 59 | 334 | 3.0 | 9.0 | 0.00 | 0.00 | 0.00 | 37 | 1008.9 |
| 20260509173613 | 60 | 331 | 9.0 | 12.0 | 0.00 | 0.00 | 0.00 | 35 | 1008.8 |
| 20260509173109 | 60 | 190 | 4.0 | 5.0 | 0.00 | 0.00 | 0.00 | 39 | 1008.8 |
| 20260509172606 | 59 | 101 | 3.0 | 5.0 | 0.00 | 0.00 | 0.00 | 38 | 1008.8 |
| 20260509172102 | 59 | 329 | 7.0 | 9.0 | 0.00 | 0.00 | 0.00 | 40 | 1008.8 |
| 20260509171558 | 58 | 212 | 7.0 | 10.0 | 0.00 | 0.00 | 0.00 | 39 | 1008.8 |
| 20260509171054 | 59 | 352 | 5.0 | 7.0 | 0.00 | 0.00 | 0.00 | 39 | 1008.6 |
| 20260509170550 | 59 | 348 | 5.0 | 9.0 | 0.00 | 0.00 | 0.00 | 39 | 1008.4 |
| 20260509170046 | 60 | 21 | 10.0 | 15.0 | 0.00 | 0.00 | 0.00 | 38 | 1008.5 |
| 20260509165545 | 59 | 328 | 4.0 | 7.0 | 0.00 | 0.00 | 0.00 | 40 | 1008.5 |
| 20260509165040 | 59 | 56 | 5.0 | 7.0 | 0.00 | 0.00 | 0.00 | 38 | 1008.4 |
| 20260509164537 | 59 | 215 | 9.0 | 14.0 | 0.00 | 0.00 | 0.00 | 37 | 1008.4 |
| 20260509164033 | 59 | 281 | 5.0 | 9.0 | 0.00 | 0.00 | 0.00 | 40 | 1008.2 |
| 20260509163531 | 59 | 332 | 6.0 | 9.0 | 0.00 | 0.00 | 0.00 | 38 | 1008.1 |
| 20260509163026 | 59 | 323 | 5.0 | 7.0 | 0.00 | 0.00 | 0.00 | 38 | 1008.1 |
| 20260509162524 | 59 | 248 | 6.0 | 12.0 | 0.00 | 0.00 | 0.00 | 39 | 1008.2 |
| 20260509162019 | 59 | 316 | 8.0 | 10.0 | 0.00 | 0.00 | 0.00 | 37 | 1008.2 |
| 20260509161516 | 59 | 324 | 9.0 | 15.0 | 0.00 | 0.00 | 0.00 | 38 | 1008.1 |
| 20260509161011 | 59 | 0 | 3.0 | 3.0 | 0.00 | 0.00 | 0.00 | 38 | 1008.0 |